EW6122 Weather Reports


time (UTC)temp
F
wind
direction
speed
knots
gust
knots
rain 1hr
in
rain 24hr
in
rain mn
in
humidity
%
barometer
mb
20260506194547 59 148 1.7 5.2 0.03 0.10 0.10 95 1004.8
20260506194536 59 167 1.7 5.2 0.03 0.10 0.10 94 1005.5
20260506193044 59 173 0.9 7.8 0.03 0.09 0.09 94 1004.9
20260506193032 58 164 0.9 8.7 0.03 0.09 0.09 94 1005.6
20260506191543 59 190 1.7 8.7 0.02 0.07 0.07 94 1005.0
20260506191532 59 190 2.6 8.7 0.02 0.07 0.07 94 1005.7
20260506190038 58 185 1.7 7.0 0.03 0.07 0.07 94 1005.1
20260506190031 58 161 1.7 8.7 0.03 0.07 0.07 93 1005.7
20260506184548 58 159 1.7 8.7 0.04 0.07 0.07 93 1005.2
20260506184533 59 176 2.6 12.2 0.04 0.07 0.07 93 1005.8
20260506183050 58 217 1.7 8.7 0.04 0.06 0.06 93 1005.4
20260506183030 58 217 2.6 10.4 0.04 0.06 0.06 93 1006.1
20260506181600 58 164 4.3 12.2 0.05 0.05 0.05 93 1005.6
20260506181532 58 161 3.5 13.0 0.05 0.05 0.05 92 1006.3
20260506180044 59 141 1.7 8.7 0.04 0.04 0.04 91 1006.1
20260506180035 59 141 1.7 7.8 0.04 0.04 0.04 92 1005.5
20260506174531 59 123 4.3 13.0 0.03 0.03 0.03 90 1005.5
20260506173035 60 137 2.6 11.3 0.02 0.02 0.02 87 1006.3
20260506171533 61 0 0.0 0.0 0.00 0.00 0.00 86 1006.7
20260506171528 61 180 0.0 1.7 0.00 0.00 0.00 86 1006.1
20260506170047 62 175 0.0 0.0 0.00 0.00 0.00 82 1006.6
20260506170032 62 0 0.0 0.0 0.00 0.00 0.00 81 1007.2
20260506164546 63 158 0.0 0.0 0.00 0.00 0.00 78 1006.7
20260506164532 63 0 0.0 0.0 0.00 0.00 0.00 78 1007.3
20260506163052 64 0 0.0 0.0 0.00 0.00 0.00 76 1007.2
20260506163044 64 156 0.0 0.0 0.00 0.00 0.00 76 1006.5
20260506161546 65 161 0.0 0.0 0.00 0.00 0.00 74 1006.4
20260506161533 65 0 0.0 0.0 0.00 0.00 0.00 74 1007.1
20260506160051 65 182 0.0 0.0 0.00 0.00 0.00 73 1006.6
20260506160032 65 0 0.0 0.0 0.00 0.00 0.00 73 1007.2
20260506154542 66 184 0.0 0.0 0.00 0.00 0.00 73 1006.9
20260506154539 66 0 0.0 0.0 0.00 0.00 0.00 72 1007.5
20260506153104 66 182 0.0 0.0 0.00 0.00 0.00 74 1006.9
20260506153030 66 0 0.0 0.0 0.00 0.00 0.00 73 1007.5
20260506151552 66 160 0.0 0.0 0.00 0.00 0.00 73 1006.9
20260506151530 66 0 0.0 0.0 0.00 0.00 0.00 73 1007.5
20260506150135 66 186 0.0 0.0 0.00 0.00 0.00 74 1006.8
20260506150030 66 0 0.0 0.0 0.00 0.00 0.00 73 1007.4
20260506144534 66 142 0.0 0.0 0.00 0.00 0.00 74 1006.9
20260506144532 66 0 0.0 0.0 0.00 0.00 0.00 73 1007.5
20260506143043 65 0 0.0 0.0 0.00 0.00 0.00 73 1007.7
20260506143034 66 190 0.0 0.0 0.00 0.00 0.00 74 1007.1
20260506141536 65 0 0.0 0.0 0.00 0.00 0.00 74 1007.7
20260506141532 65 142 0.0 0.0 0.00 0.00 0.00 75 1007.1
20260506140052 65 143 0.0 0.0 0.00 0.00 0.00 76 1007.0
20260506140032 65 0 0.0 0.0 0.00 0.00 0.00 75 1007.7
20260506134551 64 163 0.0 0.0 0.00 0.00 0.00 77 1007.2
20260506134530 64 0 0.0 0.0 0.00 0.00 0.00 76 1007.9
20260506133049 64 198 0.0 0.0 0.00 0.00 0.00 80 1006.9
20260506133032 64 0 0.0 0.0 0.00 0.00 0.00 79 1007.5
20260506131552 63 148 0.0 0.0 0.00 0.00 0.00 80 1007.1
20260506131534 63 0 0.0 0.0 0.00 0.00 0.00 79 1007.8
20260506130034 62 0 0.0 0.0 0.00 0.00 0.00 82 1007.8
20260506124542 61 167 0.0 0.0 0.00 0.00 0.00 83 1007.5
20260506124534 61 0 0.0 0.0 0.00 0.00 0.00 82 1008.1
20260506123041 60 196 0.0 0.0 0.00 0.00 0.00 84 1007.8
20260506123035 60 0 0.0 0.0 0.00 0.00 0.00 83 1008.3
20260506121540 59 142 0.0 0.0 0.00 0.00 0.00 86 1007.9
20260506121538 59 0 0.0 0.0 0.00 0.00 0.00 85 1008.4
20260506120032 59 0 0.0 0.0 0.00 0.00 0.00 86 1008.3
20260506120021 59 137 0.0 0.0 0.00 0.00 0.00 87 1007.7
20260506114538 58 0 0.0 0.0 0.00 0.00 0.00 87 1008.3
20260506114522 58 132 0.0 0.0 0.00 0.00 0.00 88 1007.8
20260506113032 57 0 0.0 0.0 0.00 0.00 0.00 88 1008.5
20260506111538 57 0 0.0 0.0 0.00 0.00 0.00 89 1008.4
20260506111517 57 86 0.0 0.0 0.00 0.00 0.00 89 1007.9
20260506110032 56 0 0.0 0.0 0.00 0.00 0.00 89 1008.8
20260506110014 56 144 0.0 0.0 0.00 0.00 0.00 90 1008.2
20260506104533 56 0 0.0 0.0 0.00 0.00 0.00 90 1008.5
20260506104511 56 136 0.0 0.0 0.00 0.00 0.00 91 1008.0
20260506103030 55 0 0.0 3.5 0.00 0.00 0.00 91 1008.7
20260506103012 55 123 0.0 2.6 0.00 0.00 0.00 91 1008.2
20260506101533 55 164 0.9 3.5 0.00 0.00 0.00 90 1008.4
20260506101509 55 164 0.9 2.6 0.00 0.00 0.00 91 1007.9
20260506100031 55 166 2.6 6.1 0.00 0.00 0.00 90 1008.3
20260506100009 55 166 2.6 6.1 0.00 0.00 0.00 91 1007.8
20260506094535 55 178 0.9 3.5 0.00 0.00 0.00 90 1008.3
20260506094504 55 177 0.9 3.5 0.00 0.00 0.00 91 1007.8
20260506093032 55 156 2.6 6.1 0.00 0.00 0.00 89 1008.3
20260506093001 55 156 2.6 6.1 0.00 0.00 0.00 89 1007.7
20260506091602 56 136 2.6 6.1 0.00 0.00 0.00 89 1007.7
20260506091530 56 137 2.6 5.2 0.00 0.00 0.00 89 1008.3
20260506090104 56 138 0.9 4.3 0.00 0.00 0.00 88 1007.8
20260506090032 56 138 0.9 4.3 0.00 0.00 0.00 88 1008.5
20260506084603 56 121 2.6 7.0 0.00 0.00 0.00 88 1007.8
20260506084532 56 119 1.7 7.8 0.00 0.00 0.00 87 1008.4
20260506083054 56 140 0.9 5.2 0.00 0.00 0.00 87 1007.9
20260506083033 56 140 1.7 5.2 0.00 0.00 0.00 87 1008.5
20260506081554 56 177 0.9 4.3 0.00 0.00 0.00 86 1007.9
20260506081531 56 177 0.9 5.2 0.00 0.00 0.00 86 1008.5
20260506073049 57 137 1.7 7.0 0.00 0.00 0.00 85 1007.7
20260506073038 57 105 2.6 7.0 0.00 0.00 0.00 85 1008.2
20260506071546 57 152 1.7 6.1 0.00 0.00 0.00 84 1007.9
20260506071532 57 167 1.7 7.0 0.00 0.00 0.00 84 1008.4
20260506061543 59 128 2.6 7.0 0.00 0.00 0.00 81 1007.5
20260506061536 59 126 2.6 8.7 0.00 0.00 0.00 80 1008.1
20260506044539 61 162 1.7 7.8 0.00 0.00 0.00 72 1008.7
20260506044527 61 162 1.7 7.8 0.00 0.00 0.00 73 1008.2
20260506043032 61 136 0.9 9.6 0.00 0.00 0.00 72 1008.8
20260506043025 61 136 0.9 8.7 0.00 0.00 0.00 73 1008.2
20260506041532 62 201 1.7 6.1 0.00 0.00 0.00 71 1008.6
20260506041524 62 166 1.7 6.1 0.00 0.00 0.00 71 1008.1
20260506040050 61 194 1.7 6.1 0.00 0.00 0.00 72 1008.7
20260506040024 61 173 2.6 11.3 0.00 0.00 0.00 73 1008.2
20260506034534 61 130 1.7 6.1 0.00 0.00 0.00 72 1008.7
20260506034523 61 138 1.7 6.1 0.00 0.00 0.00 72 1008.0
20260506033032 61 139 0.9 6.1 0.00 0.00 0.00 73 1008.8
20260506033020 61 139 0.9 6.1 0.00 0.00 0.00 73 1008.2
20260506031544 61 94 0.9 5.2 0.00 0.00 0.00 72 1008.7
20260506031520 61 96 1.7 5.2 0.00 0.00 0.00 72 1008.1
20260506030040 61 131 0.9 3.5 0.00 0.00 0.00 72 1008.0
20260506030031 61 131 0.9 6.1 0.00 0.00 0.00 71 1008.7
20260506024555 61 131 0.9 4.3 0.00 0.00 0.00 71 1008.0
20260506024530 61 131 0.9 5.2 0.00 0.00 0.00 71 1008.6
20260506023035 62 138 2.6 6.1 0.00 0.00 0.00 69 1007.9
20260506021534 63 135 1.7 6.1 0.00 0.00 0.00 68 1007.9
20260506021530 63 134 0.9 6.1 0.00 0.00 0.00 67 1008.5
20260506020045 63 179 1.7 6.1 0.00 0.00 0.00 67 1007.9
20260506020032 63 123 1.7 7.0 0.00 0.00 0.00 67 1008.5
20260506014549 63 111 0.9 5.2 0.00 0.00 0.00 68 1007.7
20260506014532 63 153 0.9 4.3 0.00 0.00 0.00 68 1008.4
20260506013100 63 187 1.7 7.0 0.00 0.00 0.00 65 1007.6
20260506013032 63 148 1.7 7.0 0.00 0.00 0.00 65 1008.2
20260506011546 64 188 0.9 7.0 0.00 0.00 0.00 65 1007.4
20260506011536 64 188 0.9 7.8 0.00 0.00 0.00 64 1008.0
20260506010038 65 205 2.6 8.7 0.00 0.00 0.00 62 1007.2
20260506004637 64 153 1.7 7.0 0.00 0.00 0.00 64 1007.0
20260506004530 64 198 1.7 7.8 0.00 0.00 0.00 64 1007.7
20260506003039 65 188 0.9 8.7 0.00 0.00 0.00 63 1006.9
20260506003030 65 207 0.0 8.7 0.00 0.00 0.00 62 1007.5
20260506001539 66 214 1.7 6.1 0.00 0.00 0.00 62 1006.4
20260506001532 66 202 1.7 7.0 0.00 0.00 0.00 61 1007.0
20260506000033 67 193 2.6 10.4 0.00 0.00 0.00 62 1006.2
20260505234536 67 196 0.0 0.0 0.00 0.00 0.00 60 1006.1
20260505234534 67 0 0.0 0.0 0.00 0.00 0.00 60 1006.8
20260505233031 68 0 0.0 0.0 0.00 0.00 0.00 59 1006.7
20260505231544 69 0 0.0 0.0 0.00 0.00 0.00 57 1006.4
20260505231535 69 225 0.0 0.0 0.00 0.00 0.00 57 1005.7
20260505230056 69 135 0.0 0.0 0.00 0.00 0.00 58 1005.7
20260505230033 69 0 0.0 0.0 0.00 0.00 0.00 57 1006.4
20260505224547 70 153 3.5 13.9 0.00 0.00 0.00 56 1005.4
20260505224532 70 178 5.2 16.5 0.00 0.00 0.00 56 1006.0
20260505223055 70 80 3.5 14.8 0.00 0.00 0.00 58 1005.4
20260505223029 70 199 2.6 14.8 0.00 0.00 0.00 57 1006.0
20260505221544 70 180 6.1 14.8 0.00 0.00 0.00 57 1005.4
20260505221532 70 186 5.2 13.0 0.00 0.00 0.00 56 1006.0
20260505220042 71 304 4.3 12.2 0.00 0.00 0.00 56 1005.5
20260505220038 71 146 4.3 14.8 0.00 0.00 0.00 56 1006.1
20260505214540 72 176 4.3 13.0 0.00 0.00 0.00 56 1005.5
20260505214536 71 138 4.3 14.8 0.00 0.00 0.00 55 1006.1
20260505213051 72 163 5.2 13.9 0.00 0.00 0.00 55 1005.2
20260505213034 72 134 3.5 13.9 0.00 0.00 0.00 54 1005.9
20260505211537 72 160 3.5 12.2 0.00 0.00 0.00 54 1005.2
20260505211532 72 99 4.3 12.2 0.00 0.00 0.00 54 1005.9
20260505210048 73 154 6.1 17.4 0.00 0.00 0.00 54 1005.1
20260505210032 73 178 6.1 20.0 0.00 0.00 0.00 53 1005.8
20260505204547 74 161 7.0 15.6 0.00 0.00 0.00 52 1005.0
20260505204534 74 162 7.0 15.6 0.00 0.00 0.00 52 1005.7
20260505203052 74 134 7.0 16.5 0.00 0.00 0.00 51 1005.0
20260505203033 74 173 5.2 16.5 0.00 0.00 0.00 51 1005.6
20260505201546 75 145 5.2 14.8 0.00 0.00 0.00 51 1005.1
20260505201533 75 128 4.3 15.6 0.00 0.00 0.00 50 1005.7
20260505200044 75 159 5.2 13.9 0.00 0.00 0.00 51 1005.4
20260505200039 75 129 5.2 14.8 0.00 0.00 0.00 50 1006.0